Sacramento / Mc Clellan, CA

12:30 PM PST on February 22, 2018 (GMT -0800)
McClellan

Weather History for KMCC - April, 2014

Change the Weather History Date:

Friday, April 11, 2014

  Actual Average (KMHR) Record (KMHR)
Temperature  
Mean Temperature 64 °F -  
Max Temperature 78 °F 65 °F 78 °F (2008)
Min Temperature 51 °F 41 °F 37 °F (2009)
Growing Degree Days 14 (Base 50)    
Moisture  
Dew Point 51 °F    
Average Humidity 64    
Maximum Humidity 88    
Minimum Humidity 34    
Precipitation  
Precipitation 0.00 in - - ()
Sea Level Pressure  
Sea Level Pressure 29.87 in    
Wind  
Wind Speed 5 mph (SSW)    
Max Wind Speed 12 mph    
Max Gust Speed -    
Visibility 10 miles    
Events      
Averages and records for this station are not official NWS values.
T = Trace of Precipitation, MM = Missing Value Source: NWS Daily Summary

Daily Weather History Graph

Daily Weather History Graph

Search for Another Location

Airport or City:

Trip Planner

Search our weather history database for the weather conditions in past years. The results will help you decide how hot, cold, wet, or windy it might be!

Date:

Astronomy

Apr. 11, 2014 Rise Set
Actual Time 6:35 AM PDT 7:38 PM PDT
Civil Twilight 6:07 AM PDT 8:05 PM PDT
Nautical Twilight 5:35 AM PDT 8:38 PM PDT
Astronomical Twilight 5:01 AM PDT 9:12 PM PDT
Moon 4:26 PM PDT (4/11) 4:30 AM PDT (4/11)
Length of Visible Light 13h 58m
Length of Day
13h 03m
Waxing Gibbous, 87% of the Moon is Illuminated
Apr 11
Waxing Gibbous
Apr 15
Full
Apr 22
Last Quarter
Apr 28
New
May 6
First Quarter

Hourly Weather History & Observations

Time (PDT) Temp. Dew Point Humidity Pressure Visibility Wind Dir Wind Speed Gust Speed Precip Events Conditions
12:10 AM 62.6 °F 50.0 °F 63% 29.91 in 10.0 mi ESE 4.6 mph - N/A   Clear
12:30 AM 60.8 °F 50.0 °F 68% 29.92 in 10.0 mi SE 6.9 mph - N/A   Clear
12:50 AM 59.0 °F 50.0 °F 72% 29.92 in 10.0 mi SE 6.9 mph - N/A   Clear
1:10 AM 57.2 °F 50.0 °F 77% 29.92 in 10.0 mi SSE 6.9 mph - N/A   Clear
1:30 AM 59.0 °F 50.0 °F 72% 29.92 in 10.0 mi SE 5.8 mph - N/A   Clear
1:50 AM 59.0 °F 50.0 °F 72% 29.91 in 10.0 mi SE 5.8 mph - N/A   Clear
2:10 AM 57.2 °F 50.0 °F 77% 29.91 in 10.0 mi ESE 5.8 mph - N/A   Clear
2:30 AM 59.0 °F 50.0 °F 72% 29.90 in 10.0 mi ENE 5.8 mph - N/A   Clear
2:50 AM 59.0 °F 50.0 °F 72% 29.90 in 10.0 mi East 3.5 mph - N/A   Clear
3:10 AM 57.2 °F 48.2 °F 72% 29.90 in 10.0 mi Calm Calm - N/A   Clear
3:30 AM 57.2 °F 48.2 °F 72% 29.90 in 10.0 mi SSE 4.6 mph - N/A   Clear
3:50 AM 55.4 °F 48.2 °F 77% 29.90 in 10.0 mi SSE 5.8 mph - N/A   Clear
4:10 AM 55.4 °F 48.2 °F 77% 29.89 in 10.0 mi South 3.5 mph - N/A   Clear
4:30 AM 55.4 °F 48.2 °F 77% 29.89 in 10.0 mi South 3.5 mph - N/A   Clear
4:50 AM 55.4 °F 48.2 °F 77% 29.89 in 10.0 mi South 3.5 mph - N/A   Clear
5:10 AM 55.4 °F 48.2 °F 77% 29.90 in 10.0 mi South 3.5 mph - N/A   Clear
5:30 AM 55.4 °F 48.2 °F 77% 29.90 in 10.0 mi Calm Calm - N/A   Clear
5:50 AM 53.6 °F 48.2 °F 82% 29.89 in 10.0 mi Calm Calm - N/A   Clear
6:10 AM 53.6 °F 48.2 °F 82% 29.89 in 10.0 mi Calm Calm - N/A   Clear
6:30 AM 51.8 °F 48.2 °F 88% 29.89 in 10.0 mi Calm Calm - N/A   Clear
6:50 AM 51.8 °F 46.4 °F 82% 29.90 in 10.0 mi Calm Calm - N/A   Clear
7:10 AM 51.8 °F 48.2 °F 88% 29.90 in 9.0 mi North 5.8 mph - N/A   Clear
7:30 AM 53.6 °F 48.2 °F 82% 29.91 in 10.0 mi North 5.8 mph - N/A   Clear
7:50 AM 53.6 °F 50.0 °F 88% 29.90 in 10.0 mi North 4.6 mph - N/A   Clear
8:10 AM 55.4 °F 51.8 °F 88% 29.90 in 9.0 mi North 3.5 mph - N/A   Clear
8:30 AM 57.2 °F 51.8 °F 82% 29.90 in 10.0 mi North 5.8 mph - N/A   Clear
8:50 AM 60.8 °F 53.6 °F 77% 29.90 in 9.0 mi North 5.8 mph - N/A   Clear
9:10 AM 62.6 °F 51.8 °F 68% 29.91 in 10.0 mi North 4.6 mph - N/A   Clear
9:30 AM 62.6 °F 51.8 °F 68% 29.91 in 9.0 mi NNW 4.6 mph - N/A   Clear
9:50 AM 64.4 °F 51.8 °F 64% 29.91 in 9.0 mi NNW 4.6 mph - N/A   Clear
10:10 AM 66.2 °F 51.8 °F 60% 29.91 in 9.0 mi NNW 4.6 mph - N/A   Clear
10:30 AM 66.2 °F 51.8 °F 60% 29.91 in 9.0 mi NW 5.8 mph - N/A   Clear
10:50 AM 68.0 °F 51.8 °F 56% 29.91 in 10.0 mi NW 3.5 mph - N/A   Clear
11:10 AM 68.0 °F 53.6 °F 60% 29.91 in 10.0 mi WNW 3.5 mph - N/A   Clear
11:30 AM 71.6 °F 51.8 °F 50% 29.91 in 10.0 mi West 6.9 mph - N/A   Clear
11:50 AM 71.6 °F 51.8 °F 50% 29.91 in 10.0 mi WNW 5.8 mph - N/A   Clear
12:10 PM 73.4 °F 51.8 °F 47% 29.90 in 9.0 mi West 5.8 mph - N/A   Clear
12:30 PM 75.2 °F 50.0 °F 41% 29.89 in - West 5.8 mph - N/A   Clear
12:50 PM 75.2 °F 50.0 °F 41% 29.88 in 10.0 mi Calm Calm - N/A   Clear
1:10 PM 75.2 °F 50.0 °F 41% 29.88 in 10.0 mi WNW 4.6 mph - N/A   Clear
1:30 PM 77.0 °F 50.0 °F 39% 29.87 in 10.0 mi WNW 3.5 mph - N/A   Clear
1:50 PM 77.0 °F 50.0 °F 39% 29.86 in 10.0 mi Calm Calm - N/A   Clear
2:10 PM 77.0 °F 50.0 °F 39% 29.85 in 10.0 mi Calm Calm - N/A   Clear
2:30 PM 77.0 °F 48.2 °F 36% 29.85 in 10.0 mi WNW 3.5 mph - N/A   Clear
2:50 PM 78.8 °F 48.2 °F 34% 29.84 in 10.0 mi Calm Calm - N/A   Clear
3:10 PM 77.0 °F 48.2 °F 36% 29.84 in 9.0 mi NNE 3.5 mph - N/A   Clear
3:30 PM 78.8 °F 50.0 °F 36% 29.83 in 10.0 mi Calm Calm - N/A   Clear
3:50 PM 77.0 °F 50.0 °F 39% 29.82 in 10.0 mi WNW 3.5 mph - N/A   Clear
4:10 PM 77.0 °F 50.0 °F 39% 29.81 in 10.0 mi WNW 4.6 mph - N/A   Clear
4:30 PM 77.0 °F 48.2 °F 36% 29.81 in 10.0 mi WNW 4.6 mph - N/A   Clear
4:50 PM 77.0 °F 57.2 °F 50% 29.81 in 10.0 mi WSW 6.9 mph - N/A   Clear
5:10 PM 75.2 °F 59.0 °F 57% 29.81 in 10.0 mi WSW 8.1 mph - N/A   Clear
5:30 PM 75.2 °F 59.0 °F 57% 29.80 in 10.0 mi SW 9.2 mph - N/A   Clear
5:50 PM 73.4 °F 59.0 °F 61% 29.80 in - SSW 6.9 mph - N/A   Clear
6:10 PM 73.4 °F 57.2 °F 57% 29.80 in 9.0 mi SW 8.1 mph - N/A   Clear
6:30 PM 71.6 °F 57.2 °F 60% 29.80 in 10.0 mi SSW 9.2 mph - N/A   Clear
6:50 PM 71.6 °F 55.4 °F 57% 29.80 in 10.0 mi SSW 6.9 mph - N/A   Clear
7:10 PM 71.6 °F 51.8 °F 50% 29.80 in 10.0 mi SSW 5.8 mph - N/A   Clear
7:30 PM 68.0 °F 50.0 °F 52% 29.80 in 10.0 mi South 4.6 mph - N/A   Clear
7:50 PM 66.2 °F 50.0 °F 56% 29.80 in 10.0 mi South 8.1 mph - N/A   Clear
8:10 PM 64.4 °F 50.0 °F 59% 29.80 in 10.0 mi SSE 6.9 mph - N/A   Clear
8:30 PM 64.4 °F 48.2 °F 56% 29.81 in 10.0 mi SSE 5.8 mph - N/A   Clear
8:50 PM 62.6 °F 50.0 °F 63% 29.81 in 10.0 mi South 9.2 mph - N/A   Clear
9:10 PM 62.6 °F 53.6 °F 72% 29.82 in 10.0 mi South 9.2 mph - N/A   Clear
9:30 PM 60.8 °F 53.6 °F 77% 29.83 in 10.0 mi South 11.5 mph - N/A   Clear
9:50 PM 59.0 °F 53.6 °F 82% 29.83 in 8.0 mi South 6.9 mph - N/A   Clear
10:10 PM 57.2 °F 51.8 °F 82% 29.83 in 8.0 mi South 9.2 mph - N/A   Clear
10:30 PM 57.2 °F 51.8 °F 82% 29.83 in 7.0 mi South 8.1 mph - N/A   Clear
10:50 PM 55.4 °F 50.0 °F 82% 29.84 in 7.0 mi SSE 9.2 mph - N/A   Clear
11:10 PM 55.4 °F 50.0 °F 82% 29.84 in 8.0 mi SSE 9.2 mph - N/A   Clear
11:30 PM 55.4 °F 50.0 °F 82% 29.84 in 8.0 mi SSE 8.1 mph - N/A   Clear
11:50 PM 53.6 °F 48.2 °F 82% 29.85 in 8.0 mi SSE 9.2 mph - N/A   Clear